KO6TH-15 Weather Reports


time (UTC)temp
F
wind
direction
speed
knots
gust
knots
rain 1hr
in
rain 24hr
in
rain mn
in
humidity
%
barometer
mb
20260507195519 78 0 3.5 0.0 0.00 0.00 0.00 66
20260507194449 79 0 1.7 0.0 0.00 0.00 0.00 65
20260507193449 79 0 1.7 0.0 0.00 0.00 0.00 65
20260507192449 78 0 1.7 0.0 0.00 0.00 0.00 68
20260507191419 78 0 2.6 0.0 0.00 0.00 0.00 67
20260507190349 78 0 4.3 0.0 0.00 0.00 0.00 67
20260507185319 77 0 4.3 0.0 0.00 0.00 0.00 69
20260507184249 76 0 3.5 0.0 0.00 0.00 0.00 69
20260507183219 77 0 0.9 0.0 0.00 0.00 0.00 68
20260507182149 76 0 1.7 0.0 0.00 0.00 0.00 69
20260507181119 76 0 1.7 0.0 0.00 0.00 0.00 68
20260507180119 76 0 0.9 0.0 0.00 0.00 0.00 70
20260507175049 74 0 1.7 0.0 0.00 0.00 0.00 71
20260507174019 76 0 2.6 0.0 0.00 0.00 0.00 71
20260507172949 75 0 1.7 0.0 0.00 0.00 0.00 71
20260507171919 75 0 0.9 0.0 0.00 0.00 0.00 66
20260507170849 73 0 1.7 0.0 0.00 0.00 0.00 68
20260507165819 72 0 0.9 0.0 0.00 0.00 0.00 69
20260507164749 72 0 0.9 0.0 0.00 0.00 0.00 70
20260507163719 70 0 1.7 0.0 0.00 0.00 0.00 74
20260507162649 71 0 1.7 0.0 0.00 0.00 0.00 73
20260507161649 68 0 0.9 0.0 0.00 0.00 0.00 77
20260507160619 67 0 2.6 0.0 0.00 0.00 0.00 78
20260507155619 66 0 1.7 0.0 0.00 0.00 0.00 82
20260507154549 65 0 0.0 0.0 0.00 0.00 0.00 84
20260507153519 65 0 0.0 0.0 0.00 0.00 0.00 91
20260507152519 64 0 0.0 0.0 0.00 0.00 0.00 95
20260507151519 63 0 0.0 0.0 0.00 0.00 0.00 97
20260507150449 63 0 0.0 0.0 0.00 0.00 0.00 99
20260507145419 60 0 0.0 0.0 0.00 0.00 0.00 99
20260507144349 57 0 0.0 0.0 0.00 0.00 0.00 99
20260507143319 55 0 0.0 0.0 0.00 0.00 0.00 99
20260507142249 55 0 0.0 0.0 0.00 0.00 0.00 99
20260507141219 53 0 0.0 0.0 0.00 0.00 0.00 99
20260507140149 51 0 0.0 0.0 0.00 0.00 0.00 99
20260507135119 50 0 0.0 0.0 0.00 0.00 0.00 99
20260507134049 49 0 0.0 0.0 0.00 0.00 0.00 99
20260507133019 49 0 0.0 0.0 0.00 0.00 0.00 99
20260507132019 49 0 0.0 0.0 0.00 0.00 0.00 99
20260507130949 48 0 0.0 0.0 0.00 0.00 0.00 99
20260507125919 48 0 0.0 0.0 0.00 0.00 0.00 99
20260507124919 48 0 0.0 0.0 0.00 0.00 0.00 99
20260507123849 48 0 0.0 0.0 0.00 0.00 0.00 99
20260507122849 48 0 0.0 0.0 0.00 0.00 0.00 99
20260507121819 48 0 0.0 0.0 0.00 0.00 0.00 99
20260507120819 48 0 0.0 0.0 0.00 0.00 0.00 99
20260507115819 48 0 0.0 0.0 0.00 0.00 0.00 99
20260507114749 49 0 0.0 0.0 0.00 0.00 0.00 99
20260507113719 48 0 0.0 0.0 0.00 0.00 0.00 99
20260507112719 48 0 0.0 0.0 0.00 0.00 0.00 99
20260507111649 48 0 0.0 0.0 0.00 0.00 0.00 99
20260507110619 48 0 0.0 0.0 0.00 0.00 0.00 99
20260507105619 48 0 0.0 0.0 0.00 0.00 0.00 99
20260507104549 49 0 0.0 0.0 0.00 0.00 0.00 99
20260507103519 49 0 0.0 0.0 0.00 0.00 0.00 99
20260507102519 49 0 0.0 0.0 0.00 0.00 0.00 99
20260507101449 49 0 0.0 0.0 0.00 0.00 0.00 99
20260507100419 49 0 0.0 0.0 0.00 0.00 0.00 99
20260507095349 49 0 0.0 0.0 0.00 0.00 0.00 99
20260507094319 50 0 0.0 0.0 0.00 0.00 0.00 99
20260507093249 50 0 0.0 0.0 0.00 0.00 0.00 99
20260507092219 50 0 0.0 0.0 0.00 0.00 0.00 99
20260507091149 50 0 0.0 0.0 0.00 0.00 0.00 99
20260507090149 50 0 0.0 0.0 0.00 0.00 0.00 99
20260507085119 50 0 0.0 0.0 0.00 0.00 0.00 99
20260507084049 50 0 0.0 0.0 0.00 0.00 0.00 99
20260507083049 51 0 0.0 0.0 0.00 0.00 0.00 99
20260507082049 51 0 0.0 0.0 0.00 0.00 0.00 99
20260507081049 51 0 0.0 0.0 0.00 0.00 0.00 99
20260507080019 52 0 0.0 0.0 0.00 0.00 0.00 99
20260507074949 52 0 0.0 0.0 0.00 0.00 0.00 99
20260507073949 52 0 0.0 0.0 0.00 0.00 0.00 99
20260507072919 52 0 0.0 0.0 0.00 0.00 0.00 99
20260507071919 52 0 0.0 0.0 0.00 0.00 0.00 99
20260507070849 52 0 0.0 0.0 0.00 0.00 0.00 99
20260507065849 53 0 0.0 0.0 0.00 0.00 0.00 99
20260507064849 53 0 0.0 0.0 0.00 0.00 0.00 99
20260507063819 53 0 0.0 0.0 0.00 0.00 0.00 99
20260507062749 53 0 0.0 0.0 0.00 0.00 0.00 99
20260507061749 54 0 0.0 0.0 0.00 0.00 0.00 99
20260507060749 54 0 0.0 0.0 0.00 0.00 0.00 99
20260507055719 54 0 0.0 0.0 0.00 0.00 0.00 99
20260507054719 54 0 0.0 0.0 0.00 0.00 0.00 99
20260507053649 55 0 0.0 0.0 0.00 0.00 0.00 99
20260507052619 55 0 0.0 0.0 0.00 0.00 0.00 99
20260507051619 55 0 0.0 0.0 0.00 0.00 0.00 99
20260507050549 56 0 0.0 0.0 0.00 0.00 0.00 99
20260507045519 56 0 0.0 0.0 0.00 0.00 0.00 97
20260507044449 57 0 0.0 0.0 0.00 0.00 0.00 98
20260507043449 57 0 0.0 0.0 0.00 0.00 0.00 96
20260507042419 57 0 0.0 0.0 0.00 0.00 0.00 95
20260507041419 58 0 0.0 0.0 0.00 0.00 0.00 94
20260507040349 59 0 0.0 0.0 0.00 0.00 0.00 94
20260507035319 59 0 0.0 0.0 0.00 0.00 0.00 92
20260507034249 60 0 0.0 0.0 0.00 0.00 0.00 91
20260507033219 61 0 0.0 0.0 0.00 0.00 0.00 92
20260507032149 62 0 0.0 0.0 0.00 0.00 0.00 89
20260507031119 63 0 0.0 0.0 0.00 0.00 0.00 87
20260507030119 64 0 0.0 0.0 0.00 0.00 0.00 87
20260507025049 65 0 0.0 0.0 0.00 0.00 0.00 84
20260507024049 66 0 0.0 0.0 0.00 0.00 0.00 81
20260507023049 67 0 0.0 0.0 0.00 0.00 0.00 79
20260507022020 68 0 0.0 0.0 0.00 0.00 0.00 76
20260507020949 67 0 0.9 0.0 0.00 0.00 0.00 76
20260507015919 68 0 1.7 0.0 0.00 0.00 0.00 76
20260507014919 68 0 1.7 0.0 0.00 0.00 0.00 75
20260507013849 68 0 1.7 0.0 0.00 0.00 0.00 74
20260507012819 69 0 1.7 0.0 0.00 0.00 0.00 74
20260507011749 70 0 0.9 0.0 0.00 0.00 0.00 72
20260507010719 69 0 2.6 0.0 0.00 0.00 0.00 72
20260507005719 70 0 2.6 0.0 0.00 0.00 0.00 71
20260507004649 70 0 2.6 0.0 0.00 0.00 0.00 71
20260507003619 71 0 0.0 0.0 0.00 0.00 0.00 68
20260507002549 72 0 0.9 0.0 0.00 0.00 0.00 67
20260507001519 72 0 1.7 0.0 0.00 0.00 0.00 67
20260507000450 74 0 2.6 0.0 0.00 0.00 0.00 64
20260506235419 74 0 3.5 0.0 0.00 0.00 0.00 63
20260506234349 76 0 2.6 0.0 0.00 0.00 0.00 62
20260506233319 74 0 2.6 0.0 0.00 0.00 0.00 63
20260506232319 75 0 2.6 0.0 0.00 0.00 0.00 62
20260506231249 75 0 1.7 0.0 0.00 0.00 0.00 63
20260506230219 73 0 2.6 0.0 0.00 0.00 0.00 66
20260506225149 75 0 1.7 0.0 0.00 0.00 0.00 62
20260506224119 70 0 3.5 0.0 0.00 0.00 0.00 70
20260506223049 71 0 1.7 0.0 0.00 0.00 0.00 69
20260506222019 71 0 1.7 0.0 0.00 0.00 0.00 69
20260506220949 69 0 1.7 0.0 0.00 0.00 0.00 71
20260506215919 68 0 0.9 0.0 0.00 0.00 0.00 73
20260506214850 67 0 1.7 0.0 0.00 0.00 0.00 74
20260506213849 67 0 1.7 0.0 0.00 0.00 0.00 75
20260506212849 66 0 0.9 0.0 0.00 0.00 0.00 76
20260506211819 67 0 0.0 0.0 0.00 0.00 0.00 75
20260506210819 65 0 2.6 0.0 0.00 0.00 0.00 77
20260506205749 64 0 2.6 0.0 0.00 0.00 0.00 79
20260506204719 65 0 3.5 0.0 0.00 0.00 0.00 78
20260506203719 65 0 1.7 0.0 0.00 0.00 0.00 78
20260506202649 64 0 2.6 0.0 0.00 0.00 0.00 79
20260506201619 64 0 1.7 0.0 0.00 0.00 0.00 79
20260506200549 64 0 2.6 0.0 0.00 0.00 0.00 81